GW4057 Weather Reports


time (UTC)temp
C
wind
direction
speed
KPH
gust
KPH
rain 1hr
cm
rain 24hr
cm
rain mn
cm
humidity
%
barometer
mb
20260506135703 8 335 4.8 12.9 0.00 3.10 0.79 89 1010.5
20260506135203 8 277 8.0 12.9 0.00 3.10 0.79 89 1010.5
20260506134703 8 349 4.8 9.7 0.00 3.10 0.79 94 1010.5
20260506134203 8 295 4.8 9.7 0.00 3.10 0.79 94 1010.5
20260506133704 8 306 3.2 11.3 0.00 3.10 0.79 96 1010.5
20260506133203 8 314 3.2 11.3 0.00 3.10 0.79 97 1010.5
20260506132203 8 309 3.2 4.8 0.00 3.10 0.79 99 1010.2
20260506131704 8 284 3.2 9.7 0.03 3.10 0.79 99 1009.8
20260506125703 7 302 0.0 9.7 0.03 3.10 0.79 99 1009.5
20260506124703 7 333 0.0 9.7 0.03 3.10 0.79 99 1009.5
20260506124204 7 306 4.8 9.7 0.03 3.10 0.79 99 1009.5
20260506123704 7 327 3.2 9.7 0.03 3.10 0.79 99 1009.5
20260506122704 7 318 1.6 4.8 0.03 3.10 0.79 99 1009.8
20260506122204 7 332 0.0 0.0 0.03 3.10 0.79 99 1009.5
20260506121704 7 296 0.0 4.8 0.03 3.10 0.79 99 1009.5
20260506121203 7 323 0.0 4.8 0.03 3.10 0.79 99 1009.5
20260506120704 7 6 0.0 4.8 0.03 3.10 0.79 99 1009.5
20260506120204 7 150 0.0 0.0 0.00 3.07 0.76 99 1009.5
20260506115704 7 321 0.0 0.0 0.00 3.07 0.76 99 1009.5
20260506115204 7 304 0.0 0.0 0.00 3.07 0.76 99 1009.5
20260506114704 7 323 0.0 0.0 0.00 3.07 0.76 99 1009.1
20260506114204 7 301 0.0 0.0 0.00 3.07 0.76 99 1009.1
20260506113704 7 287 0.0 0.0 0.00 3.07 0.76 99 1009.1
20260506112704 7 358 0.0 8.0 0.00 3.10 0.76 99 1009.1
20260506112204 7 323 0.0 8.0 0.00 3.10 0.76 99 1008.8
20260506111704 7 324 0.0 8.0 0.00 3.10 0.76 99 1008.8
20260506111204 6 59 1.6 4.8 0.00 3.10 0.76 99 1008.8
20260506110704 7 309 0.0 4.8 0.00 3.10 0.76 99 1008.5
20260506110203 7 354 0.0 4.8 0.00 3.10 0.76 99 1008.5
20260506105204 7 320 3.2 9.7 0.00 3.10 0.76 99 1008.8
20260506104704 7 296 4.8 9.7 0.00 3.10 0.76 99 1008.5
20260506104204 7 304 1.6 8.0 0.00 3.10 0.76 99 1008.5
20260506103704 7 308 3.2 8.0 0.03 3.10 0.76 99 1008.5
20260506102203 7 344 0.0 4.8 0.05 3.10 0.76 99 1007.5
20260506101204 7 82 1.6 8.0 0.10 3.10 0.76 99 1007.5
20260506100703 7 83 0.0 14.5 0.10 3.10 0.76 99 1007.8
20260506100205 7 341 0.0 14.5 0.10 3.10 0.76 99 1008.1
20260506095704 7 291 8.0 14.5 0.10 3.10 0.76 99 1008.1
20260506095204 7 314 4.8 9.7 0.10 3.10 0.76 99 1008.1
20260506094704 7 263 0.0 4.8 0.13 3.10 0.76 99 1008.5
20260506094204 7 318 1.6 4.8 0.13 3.10 0.76 99 1008.5
20260506093704 7 262 0.0 0.0 0.10 3.07 0.74 99 1008.5
20260506093204 7 2 0.0 0.0 0.10 3.07 0.74 99 1008.5
20260506092704 7 160 0.0 0.0 0.10 3.05 0.71 99 1008.5
20260506092205 7 118 0.0 0.0 0.13 3.05 0.71 99 1008.5
20260506091704 7 339 0.0 0.0 0.10 3.02 0.69 99 1008.1
20260506091203 7 124 0.0 0.0 0.10 3.00 0.66 99 1008.1
20260506090704 7 51 0.0 0.0 0.13 3.00 0.66 99 1008.1
20260506090204 7 62 0.0 0.0 0.13 3.00 0.66 99 1008.1
20260506085204 7 68 0.0 0.0 0.15 3.00 0.66 99 1007.8
20260506084704 7 137 0.0 0.0 0.13 2.97 0.64 99 1007.8
20260506083704 7 45 0.0 0.0 0.15 2.97 0.64 99 1008.1
20260506083204 7 91 0.0 0.0 0.15 2.97 0.64 99 1008.1
20260506082704 7 28 0.0 0.0 0.15 2.95 0.61 99 1008.4
20260506082203 7 20 0.0 0.0 0.13 2.92 0.58 99 1008.5
20260506081703 7 1 0.0 0.0 0.15 2.92 0.58 99 1008.5
20260506081204 7 104 0.0 0.0 0.13 2.90 0.56 99 1008.5
20260506080703 7 130 0.0 8.0 0.10 2.87 0.53 99 1008.5
20260506080204 7 52 0.0 11.3 0.10 2.87 0.53 99 1008.5
20260506073204 7 283 0.0 0.0 0.08 2.82 0.48 99 1007.8
20260506072705 7 13 0.0 0.0 0.05 2.79 0.46 99 1007.8
20260506072204 7 305 0.0 0.0 0.08 2.79 0.46 99 1007.8
20260506071203 7 283 0.0 0.0 0.08 2.77 0.43 99 1007.8
20260506070704 7 327 0.0 0.0 0.08 2.77 0.43 99 1008.1
20260506070204 7 352 0.0 4.8 0.10 2.77 0.43 99 1008.1
20260506062205 7 3 0.0 0.0 0.20 2.72 0.38 99 1008.1
20260506061704 7 43 0.0 0.0 0.20 2.72 0.38 99 1008.1
20260506061204 7 119 0.0 0.0 0.20 2.69 0.36 99 1008.1
20260506060704 7 77 0.0 4.8 0.20 2.69 0.36 99 1008.1
20260506050204 8 50 0.0 4.8 0.15 2.49 0.15 99 1008.8
20260506044704 8 115 0.0 0.0 0.18 2.46 0.13 99 1008.8
20260506044204 8 96 0.0 0.0 0.18 2.46 0.13 99 1008.8
20260506043703 7 49 0.0 4.8 0.20 2.46 0.13 99 1008.8
20260506042704 8 266 0.0 14.5 0.20 2.44 0.10 99 1008.8
20260506042204 8 343 3.2 14.5 0.18 2.41 0.08 99 1009.1
20260506041704 8 52 4.8 14.5 0.18 2.41 0.08 99 1009.1
20260506040204 8 49 0.0 0.0 0.18 2.34 0.00 99 1009.1
20260506035704 8 347 0.0 0.0 0.18 2.34 2.34 99 1009.1
20260506035204 8 330 0.0 0.0 0.18 2.31 2.31 99 1009.1
20260506034204 8 289 0.0 4.8 0.23 2.29 2.29 99 1009.5
20260506033704 9 293 3.2 4.8 0.23 2.26 2.26 99 1009.5
20260506033203 9 170 0.0 4.8 0.25 2.26 2.26 99 1009.5
20260506032705 9 331 0.0 0.0 0.30 2.26 2.26 99 1009.5
20260506032204 9 51 0.0 0.0 0.30 2.24 2.24 99 1009.5
20260506031204 9 100 0.0 0.0 0.33 2.21 2.21 99 1009.8
20260506030704 9 105 0.0 1.6 0.33 2.18 2.18 99 1009.5
20260506030204 9 237 0.0 4.8 0.33 2.16 2.16 99 1009.5
20260506025704 9 288 0.0 4.8 0.36 2.16 2.16 99 1009.1
20260506025204 9 76 1.6 4.8 0.38 2.13 2.13 99 1009.1
20260506024704 9 103 0.0 3.2 0.38 2.11 2.11 99 1009.1
20260506024204 9 222 0.0 3.2 0.36 2.06 2.06 99 1009.1
20260506023704 9 101 0.0 3.2 0.38 2.03 2.03 99 1009.1
20260506023204 9 86 3.2 4.8 0.41 2.01 2.01 99 1009.1
20260506022704 9 103 0.0 4.8 0.38 1.96 1.96 99 1008.8
20260506021704 9 39 3.2 4.8 0.38 1.91 1.91 99 1008.8
20260506021204 9 85 0.0 4.8 0.38 1.88 1.88 99 1008.5
20260506020704 9 31 3.2 4.8 0.36 1.85 1.85 99 1008.8
20260506020204 9 62 1.6 4.8 0.36 1.83 1.83 99 1009.1
20260506015704 9 74 0.0 4.8 0.41 1.80 1.80 99 1008.8
20260506015204 9 43 1.6 4.8 0.38 1.75 1.75 99 1009.1
20260506014704 9 69 0.0 3.2 0.36 1.73 1.73 99 1008.8
20260506014204 9 85 0.0 0.0 0.36 1.70 1.70 99 1008.8
20260506013704 9 100 0.0 0.0 0.30 1.65 1.65 99 1008.8
20260506013204 9 122 0.0 3.2 0.25 1.60 1.60 99 1008.8
20260506012704 9 77 0.0 4.8 0.23 1.57 1.57 99 1008.8
20260506012204 9 307 1.6 4.8 0.20 1.55 1.55 99 1008.8
20260506011704 9 177 3.2 4.8 0.18 1.52 1.52 99 1008.5
20260506011204 9 54 1.6 4.8 0.15 1.50 1.50 99 1008.8
20260506010704 9 15 0.0 0.0 0.15 1.50 1.50 99 1008.8
20260506010204 9 34 0.0 0.0 0.13 1.47 1.47 99 1008.8
20260506005704 9 80 0.0 0.0 0.05 1.40 1.40 99 1008.5
20260506005204 9 86 0.0 0.0 0.05 1.37 1.37 99 1008.5
20260506004704 9 118 0.0 0.0 0.08 1.37 1.37 99 1008.5
20260506004204 9 113 0.0 0.0 0.08 1.35 1.35 99 1008.5
20260506003704 9 83 0.0 0.0 0.10 1.35 1.35 99 1008.5
20260506003204 9 93 0.0 0.0 0.13 1.35 1.35 99 1008.5
20260506002704 9 85 0.0 0.0 0.15 1.35 1.35 99 1008.5
20260506001704 9 111 0.0 1.6 0.23 1.35 1.35 99 1008.5
20260506001204 9 95 0.0 3.2 0.25 1.35 1.35 99 1008.5
20260506000704 9 124 0.0 4.8 0.43 1.35 1.35 99 1008.5
20260506000205 9 141 1.6 4.8 0.48 1.35 1.35 99 1008.5
20260505235704 9 106 1.6 4.8 0.48 1.35 1.35 99 1008.5
20260505235203 9 113 1.6 4.8 0.48 1.32 1.32 99 1008.5
20260505234704 9 112 0.0 9.7 0.46 1.30 1.30 99 1008.8
20260505234204 9 262 1.6 9.7 0.43 1.27 1.27 99 1008.8
20260505233204 9 343 3.2 8.0 0.41 1.22 1.22 99 1008.5
20260505232204 9 342 3.2 11.3 0.41 1.17 1.17 99 1008.8
20260505231204 9 12 3.2 12.9 0.36 1.09 1.09 99 1009.1
20260505230704 9 315 8.0 12.9 0.18 0.91 0.91 99 1008.8
20260505230204 9 342 4.8 11.3 0.13 0.86 0.86 99 1008.5
20260505225705 10 357 4.8 11.3 0.15 0.86 0.86 99 1008.5
20260505225204 10 335 4.8 11.3 0.15 0.84 0.84 99 1008.5
20260505224703 10 296 4.8 11.3 0.18 0.84 0.84 99 1008.5
20260505223704 10 61 1.6 11.3 0.20 0.84 0.84 99 1008.5
20260505223204 10 25 4.8 11.3 0.18 0.81 0.81 99 1008.5
20260505222204 10 5 6.4 11.3 0.15 0.76 0.76 99 1008.5
20260505221704 10 1 3.2 11.3 0.36 0.76 0.76 99 1008.5
20260505221204 10 150 1.6 11.3 0.48 0.74 0.74 99 1008.5
20260505220704 10 75 1.6 9.7 0.56 0.74 0.74 99 1008.5
20260505220204 10 67 1.6 11.3 0.58 0.76 0.74 99 1008.8
20260505215704 10 109 4.8 11.3 0.56 0.74 0.71 99 1008.5
20260505215204 10 295 4.8 14.5 0.53 0.71 0.69 99 1008.5
20260505214704 11 21 4.8 14.5 0.53 0.69 0.66 99 1008.5
20260505214204 11 288 6.4 14.5 0.53 0.69 0.66 99 1008.5
20260505213204 12 273 4.8 19.3 0.53 0.66 0.64 99 1008.5
20260505212705 12 285 6.4 19.3 0.56 0.66 0.64 99 1008.1
20260505212204 13 290 11.3 19.3 0.53 0.64 0.61 98 1008.5
20260505211704 13 293 4.8 8.0 0.36 0.43 0.41 99 1008.1
20260505211204 13 197 0.0 3.2 0.20 0.28 0.25 99 1007.8
20260505210705 13 108 0.0 4.8 0.13 0.20 0.18 99 1007.8
20260505210204 13 311 0.0 4.8 0.10 0.18 0.15 99 1007.8
20260505205705 13 314 1.6 4.8 0.10 0.18 0.15 99 1007.8
20260505205204 13 315 0.0 4.8 0.10 0.18 0.15 99 1007.8
20260505204704 13 317 1.6 9.7 0.08 0.15 0.13 99 1007.8
20260505204205 13 313 0.0 9.7 0.08 0.15 0.13 98 1007.8
20260505203704 13 136 4.8 9.7 0.05 0.13 0.10 98 1008.1
20260505203204 13 313 4.8 9.7 0.05 0.13 0.10 97 1008.1
20260505202704 13 297 4.8 9.7 0.03 0.10 0.08 96 1008.1
20260505202204 13 315 4.8 14.5 0.03 0.10 0.08 96 1007.8
20260505201204 14 347 3.2 14.5 0.03 0.08 0.05 94 1007.8
20260505200704 14 7 4.8 11.3 0.03 0.08 0.05 94 1007.8
20260505195704 15 304 6.4 11.3 0.03 0.08 0.05 91 1007.9
20260505195204 15 328 4.8 12.9 0.03 0.08 0.05 90 1008.1
20260505194704 16 337 9.7 12.9 0.03 0.08 0.05 87 1008.1
20260505194204 16 312 9.7 12.9 0.03 0.08 0.05 86 1007.8
20260505193704 16 312 4.8 8.0 0.03 0.08 0.05 85 1007.8
20260505193204 17 141 1.6 4.8 0.03 0.08 0.05 84 1007.8
20260505192704 17 45 0.0 4.8 0.03 0.08 0.05 84 1008.1
20260505191204 17 298 3.2 12.9 0.00 0.05 0.03 81 1008.1
20260505190704 17 304 6.4 12.9 0.00 0.05 0.03 80 1008.1
20260505185704 17 248 8.0 16.1 0.00 0.05 0.03 77 1008.1
20260505185204 17 295 9.7 16.1 0.00 0.05 0.03 75 1008.1
20260505184704 18 229 8.0 16.1 0.00 0.05 0.03 74 1008.1
20260505184204 18 197 4.8 16.1 0.00 0.05 0.03 73 1008.1
20260505183704 18 236 9.7 16.1 0.00 0.05 0.03 73 1008.1
20260505183204 18 275 9.7 20.9 0.00 0.05 0.03 72 1008.1
20260505182704 18 262 8.0 20.9 0.00 0.05 0.03 72 1008.1
20260505182204 18 331 6.4 20.9 0.00 0.05 0.03 72 1008.1
20260505181204 18 219 4.8 20.9 0.00 0.05 0.03 72 1008.1
20260505180704 18 276 9.7 20.9 0.00 0.05 0.03 71 1008.1
20260505180204 18 297 12.9 20.9 0.00 0.05 0.03 70 1008.1
20260505175704 18 313 11.3 19.3 0.00 0.05 0.03 70 1007.8
20260505175204 18 324 14.5 19.3 0.00 0.05 0.03 70 1007.8
20260505174704 18 294 11.3 16.1 0.00 0.05 0.03 70 1007.8
20260505173704 18 288 8.0 19.3 0.00 0.05 0.03 69 1007.8
20260505173204 18 281 9.7 19.3 0.00 0.05 0.03 69 1007.8
20260505172704 18 281 14.5 19.3 0.00 0.05 0.03 69 1007.8
20260505172204 18 255 11.3 19.3 0.00 0.05 0.03 68 1007.8
20260505171704 18 276 11.3 20.9 0.00 0.05 0.03 68 1007.8
20260505171204 18 280 12.9 20.9 0.00 0.05 0.03 68 1007.8
20260505170705 18 311 16.1 20.9 0.00 0.05 0.03 67 1007.8
20260505170204 19 267 11.3 20.9 0.00 0.05 0.03 67 1007.8
20260505165204 19 273 9.7 27.4 0.00 0.05 0.03 67 1007.8
20260505164204 20 257 11.3 27.4 0.00 0.05 0.03 65 1007.5
20260505163704 20 182 16.1 22.5 0.00 0.05 0.03 65 1007.5
20260505163204 20 258 11.3 25.7 0.00 0.05 0.03 64 1007.5
20260505162704 20 263 11.3 25.7 0.00 0.05 0.03 64 1007.5
20260505161704 20 258 17.7 25.7 0.00 0.05 0.03 62 1007.5
20260505161204 21 243 16.1 25.7 0.00 0.05 0.03 62 1007.1
20260505160204 21 221 11.3 20.9 0.00 0.05 0.03 63 1007.1
20260505153204 20 270 17.7 24.1 0.00 0.05 0.03 63 1006.5
20260505152704 20 280 16.1 22.5 0.00 0.05 0.03 64 1006.8
20260505152204 20 201 12.9 20.9 0.00 0.05 0.03 64 1006.8
20260505151704 20 244 8.0 22.5 0.00 0.05 0.03 68 1006.8
20260505151204 19 251 14.5 27.4 0.00 0.05 0.03 66 1006.8
20260505150704 19 183 4.8 27.4 0.00 0.05 0.03 67 1006.8
20260505150204 18 231 20.9 27.4 0.00 0.05 0.03 66 1007.1
20260505140204 18 250 11.3 20.9 0.00 0.05 0.03 72 1006.7